Retour au catalogue

DELTA 1 DEB

ActifLEO
NORAD 10837·DEBRIS·🇺🇸 United States

Lancé Jul 29, 1976 depuis Vandenberg Space Force Base

Loading…

Prochains Passages (prochaines 24 heures)

TLE

FraisSource: Space-Track

Époque: Sep 14, 2026, 06:13 UTC

1 10837U 76077CH  26257.25945341 -.00000014  00000-0  30724-3 0  9996
2 10837 102.3226 180.5020 0200903  27.8408 125.6123 12.04541017204344

Suivez DELTA 1 DEB en temps réel avec AllMySat

Download on the App Store